Showing default

W-SERIES 4, 64543

Orbit data source: Space-Track

W-SERIES 4, 64543 is a payload satellite owned by Varda Space (US) in SSO that was launched on Mon, 23 Jun 2025 UTC via an FALCON 9 launch vehicle from the Air Force Western Test Range (AFWTR). Payload-class satellites include a variety of spacecraft equipped with specific instruments for various scientific and technological missions. These include communications satellites like Starlink; space stations such as the ISS; scientific satellites like the Hubble; Earth observation satellites from companies like Planet Labs, Umbra, and HawkEye 360; GPS; miniature CubeSats for education and research; and military/defense satellites.

Loading next visibility...
Identifier
64543, 2025-135R
Orbit
SSO
Country
Flag of USUS
Related business
Manufacturer
Varda Space
Mission
Operational Commercial Microgravity
Bus & Motor
VW, Unknown motor
Mass
300 kg wet, 55 kg dry
Launch date (UTC)
2025-06-23 (10 months ago)
Launch vehicle
FALCON 9
Launch site
Air Force Western Test Range (AFWTR)
Object type
Payload
Rocket body
Debris
Shape & HBR
Box + Trunc Cone + Cone + 2 Pan, 2.4 m
Radar Cross Section
3.416 m², Large (>1 m²)

Expand to show TLE details & history
Last TLE update: 8 hours ago

TLE from 8 hours ago
0 W-SERIES 4
1 64543U 25135R   26104.89639587  .00016657  21151-5  21179-3 0  9999
2 64543  97.4605 216.8149 0401845 303.0457  53.2764 15.01054172 44955
Epoch: 2026-04-14T21:30Z
TLE epoch observation values (Epoch: 2026-04-14T21:30:48.603Z)
Latitude
-0.00003°
Longitude
51.04632°
Altitude
407.346 km
Speed
7.754 km/s
True Right ascension
14h 27m 15s
True Declination
0° 00' 00"
Sunlit
Object was in full shadow at epoch
Visualization orbit readout
Latitude
Unknown
Longitude
Unknown
Altitude
Unknown
Speed
Unknown
Apparent Right ascension
Unknown
Apparent Declination
Unknown
Sunlit
N/A
Visualization observer readout
Local Sidereal Time
12:16:56
Azimuth
Unknown
Elevation
Unknown
Doppler factor
Unknown
Orbital elements
Apogee altitude
839.461 km
Perigee altitude
281.8 km
Semi-major axis
6,938.768 km
Eccentricity
0.04018
Inclination
97.4605°
RAAN
216.8149°
Arg. of periapsis
303.0457°
True anomaly
57.07863°
Mean anomaly
53.2764°
Eccentric anomaly
55.16624°
Mean motion
3.75508 °/min
Orbital period
95.87 mins
BSTAR
0.00021179
Loading maneuver chart data...
Computing Atmospheric mass density...
Loading historical data...
Loading historical data...
Loading historical data...
Loading historical data...
Loading historical data...
Loading historical data...
Loading historical data...

Documentation

Showing up to 5 results
|